Willimantic, CT

11:12 PM EDT on October 20, 2019 (GMT -0400)
Windham

Weather History for KIJD - August, 2019

Change the Weather History Date:

Friday, August 2, 2019

  Actual Average Record
Temperature  
Mean Temperature 70 °F -  
Max Temperature 86 °F 84 °F 96 °F (2006)
Min Temperature 57 °F 60 °F 47 °F (1987)
Cooling Degree Days 6    
Growing Degree Days 20 (Base 50)    
Moisture  
Dew Point 57 °F    
Average Humidity 65    
Maximum Humidity 93    
Minimum Humidity 35    
Precipitation  
Precipitation 0.00 in - - ()
Sea Level Pressure  
Sea Level Pressure 30.13 in    
Wind  
Wind Speed 3 mph (NNW)    
Max Wind Speed 12 mph    
Max Gust Speed -    
Visibility 10 miles    
Events      
Averages and records for this station are not official NWS values.
T = Trace of Precipitation, MM = Missing Value Source: NWS Daily Summary

Daily Weather History Graph

Daily Weather History Graph

Search for Another Location

Airport or City:

Astronomy

Aug. 02, 2019 Rise Set
Actual Time 5:43 AM EDT 8:05 PM EDT
Civil Twilight 5:12 AM EDT 8:36 PM EDT
Nautical Twilight 4:33 AM EDT 9:15 PM EDT
Astronomical Twilight 3:50 AM EDT 9:58 PM EDT
Moon 7:19 AM EDT (8/2) 9:31 PM EDT (8/2)
Length of Visible Light 15h 24m
Length of Day
14h 22m
Waxing Crescent, 4% of the Moon is Illuminated
Aug 2
Waxing Crescent
Aug 7
First Quarter
Aug 15
Full
Aug 23
Last Quarter
Aug 30
New

Hourly Weather History & Observations

Time (EDT) Temp. Heat Index Dew Point Humidity Pressure Visibility Wind Dir Wind Speed Gust Speed Precip Events Conditions
12:52 AM 61.0 °F - 57.9 °F 90% 30.13 in 10.0 mi North 4.6 mph - N/A   Clear
1:52 AM 59.0 °F - 57.0 °F 93% 30.13 in 10.0 mi NNW 3.5 mph - N/A   Clear
2:52 AM 59.0 °F - 55.9 °F 90% 30.15 in 10.0 mi Calm Calm - N/A   Clear
3:52 AM 57.9 °F - 55.0 °F 90% 30.14 in 10.0 mi NNW 4.6 mph - N/A   Partly Cloudy
4:52 AM 57.0 °F - 55.0 °F 93% 30.16 in 10.0 mi NNW 5.8 mph - N/A   Scattered Clouds
5:52 AM 57.0 °F - 55.0 °F 93% 30.15 in 10.0 mi North 3.5 mph - N/A   Mostly Cloudy
6:52 AM 59.0 °F - 55.9 °F 90% 30.17 in 10.0 mi Calm Calm - N/A   Scattered Clouds
7:52 AM 64.0 °F - 55.9 °F 75% 30.17 in 10.0 mi Calm Calm - N/A   Partly Cloudy
8:52 AM 71.1 °F - 57.9 °F 63% 30.17 in 10.0 mi Calm Calm - N/A   Partly Cloudy
9:52 AM 75.9 °F - 57.9 °F 54% 30.16 in 10.0 mi NE 3.5 mph - N/A   Scattered Clouds
10:52 AM 79.0 °F - 55.9 °F 45% 30.17 in 10.0 mi ENE 3.5 mph - N/A   Clear
11:52 AM 82.0 °F 81.3 °F 54.0 °F 38% 30.16 in 10.0 mi Variable 3.5 mph - N/A   Clear
12:52 PM 84.0 °F 83.3 °F 57.0 °F 40% 30.14 in 10.0 mi Variable 4.6 mph - N/A   Clear
1:52 PM 84.0 °F 82.6 °F 54.0 °F 35% 30.12 in 10.0 mi Variable 3.5 mph - N/A   Clear
2:52 PM 84.0 °F 83.0 °F 55.9 °F 38% 30.11 in 10.0 mi Calm Calm - N/A   Clear
3:52 PM 84.0 °F 83.5 °F 57.9 °F 41% 30.09 in 10.0 mi Variable 3.5 mph - N/A   Partly Cloudy
4:52 PM 82.9 °F 83.7 °F 62.1 °F 49% 30.09 in 10.0 mi South 9.2 mph - N/A   Mostly Cloudy
5:52 PM 81.0 °F 81.0 °F 57.0 °F 44% 30.10 in 10.0 mi South 11.5 mph - N/A   Partly Cloudy
6:52 PM 79.0 °F - 57.0 °F 47% 30.10 in 10.0 mi SSW 8.1 mph - N/A   Clear
7:52 PM 75.9 °F - 60.1 °F 58% 30.11 in 10.0 mi South 5.8 mph - N/A   Clear
8:52 PM 73.9 °F - 60.1 °F 62% 30.12 in 10.0 mi South 4.6 mph - N/A   Clear
9:52 PM 70.0 °F - 61.0 °F 73% 30.12 in 10.0 mi Calm Calm - N/A   Clear
10:52 PM 68.0 °F - 62.1 °F 81% 30.12 in 10.0 mi Calm Calm - N/A   Clear
11:52 PM 64.9 °F - 61.0 °F 87% 30.12 in 10.0 mi Calm Calm - N/A   Clear